Regional Weather Roundup
Issued by NWS

Home | Current Version | Previous Version | Graphics & Text | Print | Product List | Glossary Off
Versions: 1 2 3 4 5 6 7 8 9 10 11 12 13 14 15 16 17 18 19 20 21 22 23 24 25 26 27 28 29 30 31 32 33 34 35 36 37 38 39 40 41 42 43 44 45 46 47 48 49 50

000
ASUS43 KMPX 191910
RWRMN
WEATHER ROUNDUP FOR MINNESOTA
NATIONAL WEATHER SERVICE TWIN CITIES/CHANHASSEN MN
100 PM CST FRI DEC 19 2014


NOTE: "FAIR" INDICATES FEW OR NO CLOUDS BELOW 12,000 FEET WITH NO
SIGNIFICANT WEATHER AND/OR OBSTRUCTIONS TO VISIBILITY. N/A MEANS
CURRENT SKY AND/OR WEATHER CONDITIONS ARE NOT AVAILABLE.

MNZ060>063-068>070-192000-
   Twin Cities Metro

CITY           SKY/WX    TMP DP  RH WIND       PRES   REMARKS
TWIN CITIES    CLOUDY    27  22  81 SE7       30.22F WCI  19
ST PAUL        CLOUDY    27  22  81 SE10      30.24F WCI  17
CRYSTAL        CLOUDY    27  22  81 SE10      30.20F HAZE    WCI  17
BLAINE         CLOUDY    28  25  86 SE9       30.21F WCI  20
LAKEVILLE      CLOUDY    27  23  86 SE6       30.21F FOG     WCI  20
EDEN PRAIRIE   CLOUDY    28  23  81 SE8       30.20F HAZE    WCI  20
SOUTH ST PAUL  PTSUNNY   28  22  81 SE5       30.23F WCI  22
LAKE ELMO      CLOUDY    28  23  80 S6        30.23F WCI  22
$$
MNZ001>005-007-008-013>017-022>024-027-028-192000-
   Northwest Minnesota

CITY           SKY/WX    TMP DP  RH WIND       PRES   REMARKS
BEMIDJI        CLOUDY    22  21  96 SE8       30.07F FOG     WCI  12
HALLOCK        CLOUDY    27  27 100 S12       30.03F FOG     WCI  16
ROSEAU         CLOUDY    25  19  80 S13       30.06F HAZE    WCI  13
WARROAD        CLOUDY    23  19  86 S8        30.08S FOG     WCI  14
THIEF RVR FALL CLOUDY    25  25 100 SE10      30.05F WCI  15
CROOKSTON      CLOUDY    27  27 100 S14       30.05F FOG     WCI  15
FOSSTON        CLOUDY    23  21  93 SE9       30.06F FOG     WCI  13
DETROIT LAKES  CLOUDY    27  27 100 SE9       30.06S FOG     WCI  17
MOORHEAD       CLOUDY    30  30 100 S14       30.05F FOG     WCI  20
PARK RAPIDS    FOG       24  22  91 SE10      30.08F VSB 1   WCI  14
MAHNOMEN       CLOUDY    26  24  93 S10       30.05F FOG     WCI  16
$$
MNZ006-009>011-018-025>026-192000-
   North Central Minnesota

CITY           SKY/WX    TMP DP  RH WIND       PRES   REMARKS
BAUDETTE       CLOUDY    24  18  77 S6        30.09F WCI  17
FLAG ISLAND    CLOUDY    21  19  93 S18       30.08F WCI   6
INTL FALLS     LGT SNOW  24  19  81 S7        30.12F WCI  16
WASKISH        CLOUDY    25  21  86 CALM      30.09F
BIG FORK       LGT SNOW  25  19  80 SE6       30.12F WCI  18
LONGVILLE      CLOUDY    21  21 100 SE9       30.12F FOG     WCI  11
GRAND RAPIDS   CLOUDY    21  18  86 SE9       30.13F WCI  11
CRANE LAKE     CLOUDY    21  18  86 SE5       30.18S WCI  15
ORR            CLOUDY    23  18  80 S6        30.12F WCI  16
COOK           FLURRIES  21  19  93 SE7       30.15F WCI  13
WALKER         CLOUDY    21  20  96 CALM      30.09F FOG
$$
MNZ012-019>021-037-192000-
   Northeast Minnesota

CITY           SKY/WX    TMP DP  RH WIND       PRES   REMARKS
DULUTH         LGT SNOW  23  18  81 S6        30.16F WCI  16
ELY            CLOUDY    21  18  86 S6        30.16F WCI  14
HIBBING        CLOUDY    24  18  77 SE9       30.15F WCI  14
EVELETH        CLOUDY    25  21  86 S9        30.17S WCI  15
DULUTH HARBOR  FLURRIES  27  21  80 CALM      30.23F
TWO HARBORS    CLOUDY    27  21  80 S5        30.18F VSB 3/4 WCI  21
SILVER BAY     CLOUDY    25  21  86 S6        30.18F WCI  18
GRAND MARAIS     N/A     30  23  75 S8        30.24F WCI  22
G MARAIS ARPRT CLOUDY    21  18  86 SE6       30.17S WCI  14
$$
MNZ029>031-032-039>041-046>048-054>057-064-192000-
   West Central Minnesota

CITY           SKY/WX    TMP DP  RH WIND       PRES   REMARKS
FERGUS FALLS   CLOUDY    28  27  93 S14G21    30.09F FOG     WCI  17
WHEATON        CLOUDY    28  27  93 SE12      30.07F WCI  18
MORRIS         MOSUNNY   30  28  93 S17       30.06F FOG     WCI  18
ALEXANDRIA     CLOUDY    28  26  92 S12       30.09F FOG     WCI  18
ELBOW LAKE     CLOUDY    28  27  96 S14       30.06F FOG     WCI  17
WADENA         FOG       23  21  93 NW6       30.08F VSB 1   WCI  16
GLENWOOD       CLOUDY    28  28 100 S9        30.10S FOG     WCI  20
APPLETON       CLOUDY    32  28  86 S7        30.09F WCI  26
BENSON         CLOUDY    30  27  86 S13       30.10S FOG     WCI  20
ORTONVILLE     CLOUDY    30  27  86 S10       30.07F WCI  21
MADISON        SUNNY     34  32  93 S7        30.08F FOG     WCI  28
WILLMAR        CLOUDY    30  28  93 S6        30.13F FOG     WCI  24
$$
MNZ033>034-036-042>043-049>051-058-059-192000-
   Central Minnesota

CITY           SKY/WX    TMP DP  RH WIND       PRES   REMARKS
ST CLOUD       CLOUDY    26  22  84 SE10      30.16F FOG     WCI  16
SAUK CENTRE    CLOUDY    26  26  99 SE10      30.11F FOG     WCI  16
PAYNESVILLE    CLOUDY    25  25 100 E8        30.13F FOG     WCI  17
AITKIN         CLOUDY    27  19  74 SE9       30.13F WCI  17
PINE RIVER     CLOUDY    21  21 100 SE7       30.15F FOG     WCI  13
BRAINERD       CLOUDY    22  21  96 S7        30.14F FOG     WCI  13
STAPLES        CLOUDY    21  21 100 SE5       30.11F FOG     WCI  15
LONG PRAIRIE   CLOUDY    27  25  93 SE7       30.11F FOG     WCI  19
LITTLE FALLS   CLOUDY    25  23  93 SE9       30.14F FOG     WCI  15
LITCHFIELD     CLOUDY    30  28  93 S6        30.15F FOG     WCI  24
BUFFALO        CLOUDY    27  24  86 SE8       30.19F FOG     WCI  19
MAPLE LAKE     CLOUDY    28  26  91 SE6       30.18F FOG     WCI  22
$$
MNZ037-044-045-052-053-192000-
   East Central Minnesota

CITY           SKY/WX    TMP DP  RH WIND       PRES   REMARKS
PRINCETON      CLOUDY    27  23  86 CALM      30.18F FOG
MORA           CLOUDY    25  19  80 CALM      30.21S
CAMBRIDGE      CLOUDY    27  19  74 SE8       30.18F WCI  18
RUSH CITY      CLOUDY    26  21  82 SE8       30.21S WCI  17
MOOSE LAKE     CLOUDY    27  19  74 S5        30.17F WCI  21
HINCKLEY       CLOUDY    27  21  80 SE6       30.20S WCI  20
CLOQUET        CLOUDY    25  19  80 S5        30.17F WCI  19
MCGREGOR       CLOUDY    27  21  80 SE7       30.16F WCI  19
$$
MNZ071>073-080-081-089-090-097-098-192000-
   Southwest Minnesota

CITY           SKY/WX    TMP DP  RH WIND       PRES   REMARKS
MONTEVIDEO     CLOUDY    30  28  93 SW13      30.11F FOG     WCI  20
GRANITE FALLS  CLOUDY    30  28  90 S15       30.14F FOG     WCI  19
CANBY          CLOUDY    31  29  92 S9G16     30.09F FOG     WCI  23
MARSHALL       CLOUDY    30  27  86 S13       30.11F WCI  20
REDWOOD FALLS  CLOUDY    33  28  81 S13       30.14F HAZE    WCI  24
OLIVIA         CLOUDY    32  30  93 S9        30.13F FOG     WCI  24
PIPESTONE      CLOUDY    28  28 100 SW7       30.08F FOG     WCI  21
WINDOM         CLOUDY    32  28  86 S7        30.13F FOG     WCI  26
WORTHINGTON    CLOUDY    30  27  86 S16       30.13F WCI  19
JACKSON        CLOUDY    32  30  93 S10       30.15F WCI  24
TRACY          CLOUDY    31  29  91 S12       30.11F FOG     WCI  22
SLAYTON        CLOUDY    29  28  96 S8        30.11F FOG     WCI  21
$$
MNZ065>067-074>077-082>085-091>093-192000-
   South Central Minnesota

CITY           SKY/WX    TMP DP  RH WIND       PRES   REMARKS
MANKATO        CLOUDY    30  25  80 S9        30.19F WCI  22
NEW ULM        CLOUDY    30  28  93 S9        30.17F FOG     WCI  22
ST JAMES       CLOUDY    34  28  80 S10       30.18F FOG     WCI  26
FAIRMONT       CLOUDY    30  23  74 S13       30.17F WCI  20
GLENCOE        CLOUDY    31  28  91 SE8       30.17F FOG     WCI  23
FARIBAULT      CLOUDY    28  25  86 SE5       30.21F FOG     WCI  23
OWATONNA       MOSUNNY   28  25  86 S7        30.20F FOG     WCI  21
WASECA         CLOUDY    30  27  86 SE9       30.21F FOG     WCI  22
ALBERT LEA     PTSUNNY   28  27  93 S7        30.20F FOG     WCI  21
$$
MNZ078>079-086>088-094>096-192000-
   Southeast Minnesota

CITY           SKY/WX    TMP DP  RH WIND       PRES   REMARKS
ROCHESTER      CLOUDY    27  21  78 S9        30.22F WCI  18
RED WING       CLOUDY    28  21  74 SE7       30.24F WCI  21
STANTON        CLOUDY    29  24  79 S6        30.20F WCI  23
DODGE CENTER   CLOUDY    28  25  86 S9        30.20F WCI  20
WINONA         CLOUDY    30  23  74 SE5       30.27S WCI  25
AUSTIN         CLOUDY    27  23  86 S7        30.21F FOG     WCI  19
PRESTON        CLOUDY    27  20  75 S6        30.22F WCI  21
$$
ABBREVIATIONS USED IN REMARKS
   TC - TEMPERATURES IN CELSIUS
  WCI - WIND CHILL INDEX
   HX - HEAT INDEX
  VSB - VISIBILITY
$$



USA.gov is the U.S. government's official web portal to all federal, state and local government web resources and services.